DW3544 Weather Reports


time (UTC)temp
F
wind
direction
speed
knots
gust
knots
rain 1hr
in
rain 24hr
in
rain mn
in
humidity
%
barometer
mb
20260508002003 60 255 1.7 6.1 0.00 0.26 0.00 59 1009.5
20260508000005 61 230 1.7 3.5 0.00 0.34 0.00 64 1008.9
20260507235502 61 223 1.7 5.2 0.00 0.36 0.00 66 1008.9
20260507235004 61 229 1.7 5.2 0.00 0.36 0.00 62 1008.9
20260507234503 61 227 3.5 9.6 0.00 0.36 0.00 67 1008.8
20260507234004 61 220 3.5 9.6 0.00 0.36 0.00 68 1008.8
20260507233503 62 222 5.2 9.6 0.00 0.36 0.00 67 1008.6
20260507232503 62 226 5.2 8.7 0.00 0.36 0.00 67 1008.4
20260507232004 62 225 5.2 9.6 0.00 0.36 0.00 69 1008.3
20260507231004 62 230 3.5 7.0 0.00 0.36 0.00 68 1008.2
20260507230503 61 226 5.2 7.8 0.00 0.36 0.00 68 1008.1
20260507230004 61 227 6.1 8.7 0.00 0.37 0.00 68 1008.0
20260507225503 61 224 5.2 8.7 0.00 0.37 0.00 68 1007.9
20260507225003 61 219 3.5 8.7 0.00 0.37 0.00 68 1007.8
20260507224503 61 217 2.6 7.8 0.00 0.37 0.00 66 1007.8
20260507224004 62 215 1.7 5.2 0.00 0.37 0.00 66 1007.7
20260507223503 62 218 2.6 6.1 0.00 0.37 0.00 66 1007.7
20260507221503 63 222 3.5 7.8 0.00 0.37 0.00 62 1007.4
20260507221004 63 215 2.6 6.1 0.00 0.37 0.00 63 1007.4
20260507220503 63 210 1.7 5.2 0.00 0.37 0.00 62 1007.4
20260507220005 64 203 1.7 5.2 0.00 0.37 0.00 62 1007.4
20260507215503 64 185 1.7 6.1 0.00 0.37 0.00 62 1007.3
20260507215003 64 211 2.6 8.7 0.00 0.37 0.00 61 1007.3
20260507214503 64 223 2.6 8.7 0.00 0.37 0.00 60 1007.3
20260507214004 65 247 3.5 7.8 0.00 0.37 0.00 58 1007.3
20260507213503 66 243 5.2 7.8 0.00 0.37 0.00 57 1007.3
20260507213004 66 235 3.5 7.8 0.00 0.37 0.00 55 1007.2
20260507212503 66 232 3.5 7.8 0.00 0.37 0.00 53 1007.3
20260507212004 67 189 2.6 7.8 0.00 0.37 0.00 54 1007.2
20260507211503 67 167 2.6 7.8 0.00 0.37 0.00 53 1007.2
20260507210503 67 148 1.7 9.6 0.00 0.37 0.00 53 1007.3
20260507210005 67 139 0.9 2.6 0.00 0.37 0.00 56 1007.2
20260507205503 66 205 1.7 6.1 0.00 0.37 0.00 51 1007.2
20260507205004 66 181 1.7 7.0 0.00 0.37 0.00 52 1007.2
20260507204503 66 168 2.6 7.0 0.00 0.37 0.00 55 1007.3
20260507204003 66 228 3.5 7.8 0.00 0.37 0.00 55 1007.3
20260507203503 65 239 5.2 8.7 0.00 0.37 0.00 54 1007.4
20260507202503 66 271 3.5 8.7 0.00 0.37 0.00 55 1007.3
20260507202005 65 276 3.5 7.8 0.00 0.37 0.00 53 1007.2
20260507201502 66 273 3.5 8.7 0.00 0.37 0.00 52 1007.3
20260507201003 66 249 2.6 8.7 0.00 0.37 0.00 55 1007.6
20260507200503 65 213 1.7 6.1 0.00 0.37 0.00 55 1007.7
20260507195503 64 241 1.7 3.5 0.00 0.37 0.00 53 1007.8
20260507195004 64 217 1.7 5.2 0.00 0.37 0.00 55 1007.7
20260507194503 64 177 1.7 5.2 0.00 0.37 0.00 56 1007.8
20260507194004 63 156 0.9 3.5 0.00 0.37 0.00 54 1007.8
20260507193502 62 145 1.7 6.1 0.00 0.37 0.00 56 1007.9
20260507193003 62 124 1.7 6.1 0.00 0.37 0.00 55 1008.0
20260507192503 62 113 1.7 6.1 0.00 0.37 0.00 60 1008.1
20260507192004 61 114 2.6 6.1 0.00 0.37 0.00 54 1008.2
20260507191503 61 110 1.7 6.1 0.00 0.37 0.00 58 1008.2
20260507191004 61 109 2.6 7.0 0.00 0.37 0.00 59 1008.3
20260507190503 60 98 3.5 7.0 0.00 0.37 0.00 59 1008.2
20260507190005 60 84 5.2 8.7 0.00 0.37 0.00 57 1008.3
20260507185503 60 90 5.2 8.7 0.00 0.37 0.00 59 1008.4
20260507185004 60 93 5.2 8.7 0.00 0.37 0.00 57 1008.4
20260507183503 63 83 2.6 6.1 0.00 0.37 0.00 57 1008.5
20260507183004 63 126 2.6 6.1 0.00 0.37 0.00 54 1008.5
20260507182503 62 132 1.7 6.1 0.00 0.37 0.00 55 1008.5
20260507182004 62 137 1.7 6.1 0.00 0.37 0.00 57 1008.6
20260507181503 62 133 1.7 6.1 0.00 0.37 0.00 55 1008.6
20260507181004 61 95 2.6 7.0 0.00 0.37 0.00 58 1008.8
20260507180503 61 74 2.6 7.0 0.00 0.37 0.00 56 1008.9
20260507175503 61 65 2.6 5.2 0.00 0.37 0.00 58 1009.0
20260507174503 61 87 1.7 3.5 0.00 0.37 0.00 58 1009.3
20260507174003 61 63 1.7 3.5 0.00 0.37 0.00 61 1009.3
20260507172503 59 58 1.7 5.2 0.00 0.37 0.00 57 1009.5
20260507172003 58 66 2.6 7.0 0.00 0.37 0.00 62 1009.6
20260507171503 58 77 3.5 7.0 0.00 0.37 0.00 61 1009.7
20260507171004 58 68 3.5 7.8 0.00 0.37 0.00 63 1009.9
20260507170005 58 72 3.5 8.7 0.00 0.37 0.00 59 1010.0
20260507165503 58 57 3.5 8.7 0.00 0.37 0.00 61 1010.0
20260507165004 58 69 3.5 8.7 0.00 0.37 0.00 65 1010.2
20260507164503 58 90 5.2 8.7 0.00 0.37 0.00 61 1009.9
20260507164004 58 90 3.5 8.7 0.00 0.37 0.00 61 1010.1
20260507163503 58 92 3.5 8.7 0.00 0.37 0.00 64 1010.3
20260507163004 58 104 5.2 9.6 0.00 0.37 0.00 66 1010.3
20260507162503 57 94 6.1 10.4 0.00 0.37 0.00 64 1010.5
20260507162003 56 95 6.1 10.4 0.00 0.37 0.00 69 1010.6
20260507161503 56 100 5.2 9.6 0.00 0.37 0.00 67 1010.7
20260507161004 55 80 5.2 9.6 0.00 0.37 0.00 70 1010.9
20260507160503 54 82 3.5 7.8 0.00 0.37 0.00 68 1011.0
20260507155503 54 90 3.5 7.8 0.00 0.37 0.00 67 1011.1
20260507155003 54 85 2.6 7.0 0.00 0.37 0.00 67 1011.2
20260507154503 54 86 2.6 7.0 0.00 0.37 0.00 67 1011.2
20260507154004 54 90 3.5 7.0 0.00 0.37 0.00 67 1011.1
20260507153504 53 90 2.6 7.0 0.00 0.37 0.00 70 1011.0
20260507153004 53 66 2.6 7.0 0.00 0.37 0.00 68 1011.1
20260507152503 53 59 3.5 7.8 0.00 0.37 0.00 68 1011.1
20260507152004 53 71 3.5 7.8 0.00 0.37 0.00 71 1011.2
20260507151503 53 75 3.5 7.8 0.00 0.37 0.00 71 1011.2
20260507150503 52 73 3.5 8.7 0.00 0.37 0.00 72 1011.5
20260507150005 52 71 5.2 8.7 0.00 0.37 0.00 73 1011.5
20260507145503 52 79 6.1 8.7 0.00 0.37 0.00 71 1011.5
20260507145004 52 78 5.2 8.7 0.00 0.37 0.00 73 1011.4
20260507144503 52 68 3.5 8.7 0.00 0.37 0.00 73 1011.6
20260507143502 52 71 5.2 10.4 0.00 0.37 0.00 74 1011.8
20260507143004 52 68 5.2 10.4 0.00 0.37 0.00 73 1011.9
20260507142503 52 68 5.2 9.6 0.00 0.37 0.00 74 1011.9
20260507142004 52 69 5.2 9.6 0.00 0.37 0.00 76 1012.1
20260507141503 52 65 5.2 9.6 0.00 0.37 0.00 74 1012.0
20260507141007 52 63 5.2 8.7 0.00 0.37 0.00 77 1012.1
20260507140503 51 63 5.2 9.6 0.00 0.37 0.00 77 1012.0
20260507140004 51 66 5.2 9.6 0.00 0.37 0.00 78 1012.1
20260507135504 51 69 3.5 7.8 0.00 0.37 0.00 79 1012.2
20260507135004 51 65 2.6 7.0 0.00 0.37 0.00 80 1012.1
20260507134504 51 60 3.5 7.8 0.00 0.37 0.00 80 1012.1
20260507134003 51 59 3.5 8.7 0.00 0.37 0.00 79 1012.2
20260507133503 51 59 3.5 9.6 0.00 0.37 0.00 80 1012.3
20260507133005 51 59 3.5 9.6 0.00 0.37 0.00 81 1012.1
20260507132502 51 60 2.6 8.7 0.00 0.37 0.00 82 1012.2
20260507132004 51 60 3.5 7.8 0.00 0.37 0.00 82 1012.3
20260507131503 51 61 3.5 8.7 0.00 0.37 0.00 81 1012.3
20260507131004 52 57 3.5 8.7 0.00 0.37 0.00 82 1012.4
20260507130503 52 58 3.5 7.0 0.00 0.37 0.00 82 1012.4
20260507130005 52 65 2.6 7.0 0.00 0.38 0.00 82 1012.4
20260507125503 52 69 1.7 6.1 0.00 0.38 0.00 83 1012.4
20260507125004 52 68 2.6 6.1 0.00 0.38 0.00 82 1012.3
20260507124503 52 65 2.6 6.1 0.00 0.39 0.00 82 1012.2
20260507124004 52 63 1.7 5.2 0.00 0.40 0.00 84 1012.1
20260507123504 52 64 1.7 6.1 0.00 0.40 0.00 85 1012.1
20260507123004 52 63 2.6 7.0 0.00 0.41 0.00 84 1012.1
20260507122503 52 61 3.5 9.6 0.00 0.42 0.00 84 1012.1
20260507121003 52 78 1.7 3.5 0.00 0.44 0.00 87 1011.5
20260507120004 52 75 1.7 3.5 0.00 0.45 0.00 87 1011.7
20260507115503 52 77 0.9 3.5 0.00 0.45 0.00 88 1011.9
20260507114503 52 84 1.7 5.2 0.00 0.45 0.00 89 1011.9
20260507114004 52 90 0.9 5.2 0.00 0.45 0.00 89 1011.8
20260507113503 52 96 0.9 1.7 0.00 0.45 0.00 89 1011.7
20260507113005 52 95 0.9 2.6 0.00 0.45 0.00 90 1011.9
20260507112005 52 95 0.9 2.6 0.00 0.45 0.00 90 1011.7
20260507111503 52 96 0.9 1.7 0.00 0.45 0.00 90 1011.8
20260507111004 52 96 0.9 1.7 0.00 0.45 0.00 90 1011.5
20260507110503 52 96 0.9 1.7 0.00 0.46 0.00 90 1011.4
20260507110004 52 96 0.0 0.9 0.00 0.46 0.00 90 1011.2
20260507105503 52 96 0.0 0.9 0.00 0.46 0.00 90 1011.5
20260507104504 52 95 0.9 2.6 0.00 0.47 0.00 89 1011.0
20260507104004 52 95 0.9 2.6 0.00 0.47 0.00 88 1011.0
20260507103004 52 97 0.0 0.9 0.00 0.47 0.00 88 1011.3
20260507102503 52 97 0.0 0.9 0.00 0.47 0.00 88 1011.3
20260507102006 52 0 0.0 0.0 0.00 0.47 0.00 87 1011.3
20260507101004 52 96 0.9 2.6 0.00 0.47 0.00 87 1011.2
20260507100503 52 97 1.7 3.5 0.00 0.47 0.00 86 1010.9
20260507100004 52 97 1.7 3.5 0.00 0.47 0.00 86 1011.0
20260507095503 52 97 1.7 3.5 0.00 0.47 0.00 86 1011.0
20260507095004 52 97 1.7 2.6 0.00 0.47 0.00 86 1010.9
20260507094004 52 96 1.7 2.6 0.00 0.47 0.00 86 1010.8
20260507093503 52 96 1.7 2.6 0.00 0.47 0.00 84 1011.0
20260507093004 52 96 0.9 2.6 0.00 0.47 0.00 84 1010.9
20260507092504 52 95 0.9 2.6 0.00 0.47 0.00 85 1010.8
20260507092005 52 96 1.7 2.6 0.00 0.47 0.00 85 1010.8
20260507091503 52 96 1.7 2.6 0.00 0.47 0.00 85 1010.9
20260507091004 52 95 1.7 3.5 0.00 0.47 0.00 85 1010.9
20260507090504 52 94 1.7 3.5 0.00 0.47 0.00 85 1010.8
20260507090005 52 94 1.7 3.5 0.00 0.47 0.00 86 1010.8
20260507085503 52 93 1.7 2.6 0.00 0.47 0.00 86 1010.6
20260507085004 52 92 1.7 6.1 0.00 0.47 0.00 87 1010.7
20260507084504 52 90 2.6 6.1 0.00 0.47 0.00 87 1010.6
20260507084004 52 89 2.6 6.1 0.00 0.47 0.00 87 1010.5
20260507083004 52 89 2.6 3.5 0.00 0.47 0.00 87 1010.6
20260507082503 52 89 2.6 3.5 0.00 0.47 0.00 87 1010.7
20260507082004 52 89 1.7 3.5 0.00 0.47 0.00 87 1010.8
20260507081504 52 89 1.7 3.5 0.00 0.47 0.00 87 1010.8
20260507080504 52 86 2.6 5.2 0.00 0.47 0.00 86 1011.1
20260507080005 52 86 2.6 5.2 0.00 0.47 0.00 86 1010.9
20260507075503 52 89 2.6 6.1 0.00 0.47 0.00 87 1011.0
20260507074503 52 83 3.5 7.0 0.00 0.47 0.00 87 1010.9
20260507074004 52 75 3.5 7.0 0.00 0.47 0.00 86 1011.0
20260507073503 53 69 2.6 7.0 0.00 0.47 0.00 87 1010.9
20260507073004 53 69 3.5 7.8 0.00 0.47 0.00 86 1010.7
20260507072504 53 67 5.2 9.6 0.00 0.47 0.00 87 1010.4
20260507072004 53 68 5.2 9.6 0.00 0.47 0.00 87 1010.2
20260507071004 53 66 3.5 7.8 0.00 0.47 0.00 88 1010.5
20260507070504 53 65 3.5 7.8 0.00 0.47 0.00 88 1010.4
20260507070009 53 61 3.5 9.6 0.00 0.47 0.00 88 1010.3
20260507065503 53 60 6.1 13.0 0.00 0.47 0.00 88 1010.4
20260507064004 54 54 3.5 11.3 0.00 0.47 0.00 88 1010.7
20260507063503 54 56 5.2 11.3 0.00 0.47 0.00 87 1010.6
20260507063004 54 54 3.5 9.6 0.00 0.47 0.00 87 1010.6
20260507062503 54 58 3.5 9.6 0.00 0.47 0.00 87 1010.5
20260507062004 54 64 2.6 8.7 0.00 0.47 0.00 88 1010.5
20260507061504 54 65 3.5 7.8 0.00 0.47 0.00 88 1010.4
20260507061005 54 68 3.5 7.8 0.00 0.47 0.00 87 1010.5
20260507060504 55 69 3.5 7.8 0.00 0.47 0.00 87 1010.6
20260507060005 55 68 3.5 7.8 0.00 0.47 0.00 88 1010.7
20260507055502 55 73 3.5 7.8 0.00 0.47 0.00 88 1010.7
20260507055003 55 77 3.5 7.8 0.00 0.47 0.00 88 1010.8
20260507054503 55 74 5.2 8.7 0.00 0.47 0.00 88 1010.7
20260507054003 55 71 3.5 8.7 0.00 0.47 0.00 88 1010.9
20260507053502 55 72 5.2 10.4 0.00 0.47 0.00 88 1010.8
20260507053003 55 75 5.2 10.4 0.00 0.47 0.00 88 1010.5
20260507052502 55 69 5.2 10.4 0.00 0.47 0.00 88 1010.5
20260507052003 55 61 5.2 13.0 0.00 0.47 0.00 88 1010.5
20260507051503 55 60 3.5 13.0 0.00 0.47 0.00 88 1010.4
20260507051002 56 60 2.6 7.8 0.00 0.47 0.00 90 1010.5
20260507050503 56 49 1.7 6.1 0.00 0.47 0.00 90 1010.4
20260507050003 56 17 1.7 3.5 0.00 0.47 0.00 91 1010.1
20260507045501 56 307 0.9 2.6 0.00 0.47 0.00 91 1009.9
20260507045003 56 299 0.9 2.6 0.02 0.47 0.00 90 1010.0
20260507044502 56 312 0.9 2.6 0.02 0.47 0.00 90 1009.9
20260507044002 56 340 1.7 5.2 0.03 0.47 0.00 90 1009.8
20260507043503 56 55 0.9 5.2 0.03 0.47 0.00 90 1009.7
20260507043002 56 80 1.7 5.2 0.03 0.47 0.00 90 1009.3
20260507042502 56 85 3.5 8.7 0.03 0.47 0.00 89 1009.0
20260507042003 56 84 5.2 8.7 0.03 0.47 0.00 89 1009.2
20260507041502 57 84 6.1 10.4 0.03 0.47 0.00 88 1009.5
20260507041002 57 88 6.1 10.4 0.05 0.47 0.00 89 1009.6
20260507040503 57 86 3.5 7.8 0.06 0.47 0.00 89 1009.9
20260507040006 57 84 2.6 7.8 0.08 0.47 0.00 90 1010.3
20260507035502 57 77 2.6 7.8 0.14 0.47 0.47 90 1010.1
20260507035003 58 40 1.7 5.2 0.18 0.45 0.45 90 1010.6
20260507034502 58 50 2.6 5.2 0.17 0.44 0.44 90 1010.9
20260507034002 58 68 2.6 7.0 0.18 0.44 0.44 90 1010.3
20260507033502 58 77 3.5 7.8 0.18 0.44 0.44 90 1010.1
20260507033003 58 89 3.5 9.6 0.18 0.44 0.44 90 1010.0
20260507032502 58 92 5.2 9.6 0.18 0.44 0.44 89 1010.3
20260507032002 58 84 3.5 9.6 0.18 0.44 0.44 90 1010.1
20260507031502 58 72 3.5 8.7 0.18 0.44 0.44 90 1010.3
20260507031003 59 72 3.5 9.6 0.17 0.42 0.42 89 1010.1
20260507030502 59 69 2.6 9.6 0.18 0.41 0.41 88 1010.0
20260507030003 60 68 1.7 6.1 0.16 0.39 0.39 88 1010.1
20260507025502 60 58 1.7 6.1 0.09 0.32 0.32 87 1010.1
20260507024503 61 45 0.0 2.6 0.04 0.27 0.27 89 1010.0
20260507024003 61 49 0.9 5.2 0.03 0.26 0.26 89 1009.9
20260507023002 61 63 2.6 7.8 0.03 0.26 0.26 88 1009.4
20260507022502 62 73 1.7 7.0 0.03 0.26 0.26 90 1009.1
20260507021502 62 77 2.6 6.1 0.04 0.26 0.26 89 1009.1
20260507021003 62 63 2.6 8.7 0.03 0.25 0.25 89 1008.9
20260507020503 62 49 1.7 8.7 0.01 0.23 0.23 89 1009.0
20260507015503 62 325 0.9 5.2 0.02 0.23 0.23 90 1009.5
20260507015003 62 108 0.0 0.9 0.02 0.23 0.23 90 1009.3
20260507014502 62 108 0.0 0.9 0.02 0.23 0.23 89 1009.1
20260507014002 62 0 0.0 0.0 0.02 0.23 0.23 89 1008.9
20260507013503 63 108 0.9 2.6 0.02 0.23 0.23 89 1008.9
20260507013003 63 109 1.7 3.5 0.02 0.23 0.23 88 1008.5
20260507012502 63 106 2.6 7.0 0.02 0.23 0.23 88 1008.6
20260507012003 63 99 2.6 7.0 0.02 0.23 0.23 88 1008.4
20260507011502 63 82 1.7 6.1 0.02 0.22 0.22 89 1008.7
20260507011003 63 64 0.9 3.5 0.03 0.22 0.22 88 1009.0
20260507010502 63 46 0.9 2.6 0.07 0.22 0.22 88 1009.2
20260507010003 63 28 0.9 2.6 0.10 0.22 0.22 87 1009.2
20260507005502 63 20 0.9 2.6 0.10 0.21 0.21 85 1009.3
20260507004004 64 327 0.9 5.2 0.10 0.21 0.21 82 1009.4
20260507003502 64 311 1.7 7.8 0.10 0.21 0.21 81 1009.1
20260507003004 64 294 2.6 7.8 0.10 0.21 0.21 82 1009.1